Stations météo

Publicité
Figari, France (7780): Température de l'air & dewpoint: 25.10.2020 23:00:00 - 31.10.2020 23:00:00 (CET)Figari, France (7780): Température de l'air 5cm: 25.10.2020 23:00:00 - 31.10.2020 23:00:00 (CET)Figari, France (7780): Vitesse du vent & gusts: 25.10.2020 23:00:00 - 31.10.2020 23:00:00 (CET)Figari, France (7780): Direction du vent: 25.10.2020 23:00:00 - 31.10.2020 23:00:00 (CET)Figari, France (7780): reduced air pressure: 25.10.2020 23:00:00 - 31.10.2020 23:00:00 (CET)Figari, France (7780): visibility: 25.10.2020 23:00:00 - 31.10.2020 23:00:00 (CET)Figari, France (7780): Quantités de précipitations: 25.10.2020 23:00:00 - 31.10.2020 23:00:00 (CET)
Date & Time tt [°C] td [°C] tt 5cm [°C] ff [km/h] ff [knt] fx [km/h] fx [knt] dd ppp [hPa] vv [km] rr [mm]
31.10.2020 23:00:00 9,6 9,1 8,9 5 3 6 3 NNE 1024,7 10 0,0
31.10.2020 22:00:00 9,6 9,0 8,2 0 0 8 4 N 1024,6 14 0,0
31.10.2020 21:00:00 8,8 8,0 7,7 5 3 8 4 ENE 1024,4 12 0,0
31.10.2020 20:00:00 9,5 8,4 8,5 3 1 6 3 ENE 1024,2 13 0,0
31.10.2020 19:00:00 11,8 10,5 10,3 4 2 9 5 N 1024,2 21 0,0
31.10.2020 18:00:00 14,7 12,7 12,4 9 5 30 16 WNW 1023,7 33 0,0
31.10.2020 17:00:00 17,4 13,3 15,9 20 11 42 23 SW 1023,5 48 0,0
31.10.2020 16:00:00 19,0 13,8 16,9 23 12 43 23 SW 1023,5 28 0,0
31.10.2020 15:00:00 20,0 13,9 17,9 30 16 44 24 SW 1023,7 21 0,0
31.10.2020 14:00:00 20,5 14,4 18,4 28 15 46 25 SW 1023,8 35 0,0
31.10.2020 13:00:00 20,4 14,1 18,3 31 17 47 25 SW 1024,2 45 0,0
31.10.2020 12:00:00 20,3 14,4 17,6 24 13 37 20 SW 1024,8 55 0,0
31.10.2020 11:00:00 19,8 14,2 15,4 19 11 29 16 SW 1025,4 39 0,0
31.10.2020 10:00:00 15,8 14,5 12,7 11 6 18 10 WSW 1025,6 16 0,0
31.10.2020 09:00:00 12,5 12,3 9,1 0 0 5 3 N 1025,5 20 0,0
31.10.2020 08:00:00 8,8 8,7 6,8 2 1 8 4 ENE 1025,4 18 0,0
31.10.2020 07:00:00 6,7 6,3 6,8 5 3 9 5 NE 1025,3 16 0,0
31.10.2020 06:00:00 7,1 6,7 6,8 4 2 10 5 NNE 1025,1 15 0,0
31.10.2020 05:00:00 8,0 7,6 7,3 7 4 10 5 NNE 1025,0 15 0,2
31.10.2020 04:00:00 7,8 7,4 8,0 5 3 8 4 NE 1024,8 17 0,0
31.10.2020 03:00:00 8,2 7,4 8,8 2 1 7 4 ENE 1025,0 16 0,0
31.10.2020 02:00:00 9,7 9,1 10,1 3 2 6 4 ENE 1025,3 19 0,0
31.10.2020 01:00:00 10,1 9,8 8,8 7 4 9 5 NE 1025,3 18 0,0
31.10.2020 00:00:00 8,8 8,2 8,3 3 2 9 5 N 1025,4 18 0,0
30.10.2020 23:00:00 9,9 9,4 8,4 9 5 10 6 NE 1025,6 15 0,0
30.10.2020 22:00:00 9,8 9,2 8,7 5 3 8 5 NNE 1025,3 18 0,0
30.10.2020 21:00:00 10,0 9,2 9,2 3 1 9 5 ENE 1025,1 18 0,0
30.10.2020 20:00:00 11,7 10,6 10,5 4 2 20 11 NNE 1024,7 19 0,0
30.10.2020 19:00:00 15,0 13,9 12,5 11 6 20 11 SW 1024,5 23 0,0
30.10.2020 18:00:00 16,0 13,8 13,3 16 8 22 12 SW 1024,1 25 0,0
30.10.2020 17:00:00 18,5 13,8 16,3 15 8 29 15 SW 1024,0 33 0,0
30.10.2020 16:00:00 20,1 13,8 17,6 16 9 30 16 WSW 1024,0 37 0,0
30.10.2020 15:00:00 21,4 14,3 18,3 16 8 29 15 WSW 1023,8 33 0,0
30.10.2020 14:00:00 20,4 14,5 18,8 19 11 29 16 SW 1024,0 34 0,0
30.10.2020 13:00:00 21,0 14,9 19,2 17 9 28 15 SW 1024,1 21 0,0
30.10.2020 12:00:00 21,1 14,7 18,2 15 8 27 14 SW 1024,5 47 0,0
30.10.2020 11:00:00 20,6 14,3 17,7 13 7 23 12 SW 1024,7 20 0,0
30.10.2020 10:00:00 19,3 13,9 15,9 3 2 10 5 S 1024,7 34 0,0
30.10.2020 09:00:00 16,5 13,0 10,6 3 2 11 6 E 1024,7 4,0 0,0
30.10.2020 08:00:00 10,7 9,9 9,2 6 3 11 6 NE 1024,1 21 0,0
30.10.2020 07:00:00 10,1 9,0 9,2 4 2 10 5 NE 1023,7 16 0,0
30.10.2020 06:00:00 10,7 9,6 10,1 6 3 13 7 NNE 1023,7 23 0,0
30.10.2020 05:00:00 11,6 10,0 11,3 5 3 22 12 NNE 1023,1 19 0,0
30.10.2020 04:00:00 14,1 12,8 11,1 15 8 22 12 SW 1022,6 12 0,0
30.10.2020 03:00:00 13,5 11,9 9,9 15 8 20 11 WSW 1022,7 18 0,0
30.10.2020 02:00:00 11,1 9,2 10,0 13 7 18 10 SW 1022,8 20 0,0
30.10.2020 01:00:00 12,9 10,3 11,4 4 2 27 15 W 1023,0 19 0,0
30.10.2020 00:00:00 16,1 11,9 14,1 15 8 36 19 WSW 1023,1 20 0,0
29.10.2020 23:00:00 16,2 12,0 12,8 21 11 34 18 W 1022,7 20 0,0
29.10.2020 22:00:00 15,3 12,6 12,8 15 8 23 12 WSW 1022,8 18 0,0
29.10.2020 21:00:00 15,9 12,5 14,5 18 10 37 20 W 1022,5 19 0,0
29.10.2020 20:00:00 16,2 12,6 14,8 22 12 35 19 WSW 1022,1 19 0,0
29.10.2020 19:00:00 16,3 12,1 14,8 21 11 37 20 WSW 1021,7 19 0,0
29.10.2020 18:00:00 16,9 11,6 15,3 21 11 41 22 W 1021,4 20 0,0
29.10.2020 17:00:00 17,7 11,5 15,9 19 11 39 21 WNW 1021,1 25 0,0
29.10.2020 16:00:00 18,2 11,5 16,5 24 13 46 25 W 1020,7 28 0,0
29.10.2020 15:00:00 19,2 12,0 17,7 18 10 54 29 W 1020,5 20 0,0
29.10.2020 14:00:00 20,0 12,0 17,2 26 14 54 29 W 1020,3 20 0,0
29.10.2020 13:00:00 19,5 12,5 15,9 29 16 61 33 W 1020,5 23 0,0
29.10.2020 12:00:00 18,2 11,7 15,9 34 18 59 32 W 1020,6 27 0,0
29.10.2020 11:00:00 18,3 12,1 15,6 26 14 60 32 WSW 1020,7 29 0,0
29.10.2020 10:00:00 18,0 12,2 15,3 29 15 56 30 WSW 1020,5 34 0,0
29.10.2020 09:00:00 17,9 12,3 15,0 29 16 53 28 W 1020,5 34 0,0
29.10.2020 08:00:00 17,6 12,5 14,7 27 14 55 30 W 1020,2 39 0,0
29.10.2020 07:00:00 17,0 13,1 14,3 27 15 44 24 W 1019,8 47 0,0
29.10.2020 06:00:00 16,6 12,5 13,9 16 9 40 22 WSW 1020,2 54 0,0
29.10.2020 05:00:00 16,6 12,5 14,4 21 11 44 24 W 1020,1 52 0,0
29.10.2020 04:00:00 17,0 12,7 14,0 21 11 39 21 W 1020,0 57 0,0
29.10.2020 03:00:00 15,9 12,3 12,2 17 9 30 16 WSW 1020,5 51 0,0
29.10.2020 02:00:00 14,8 11,9 11,6 15 8 29 16 WSW 1020,8 47 0,0
29.10.2020 01:00:00 13,8 11,7 10,3 14 8 21 11 SW 1021,0 19 0,0
29.10.2020 00:00:00 13,3 11,2 9,6 14 7 20 11 SW 1021,0 54 0,0
28.10.2020 23:00:00 12,1 10,7 10,1 10 6 19 11 WSW 1021,4 19 0,0
28.10.2020 22:00:00 13,1 11,0 10,4 10 6 18 10 SW 1021,5 52 0,0
28.10.2020 21:00:00 13,9 11,2 11,3 13 7 30 16 WSW 1021,3 19 0,0
28.10.2020 20:00:00 14,4 11,5 11,6 16 8 24 13 WSW 1020,7 40 0,0
28.10.2020 19:00:00 14,9 11,7 12,9 16 9 37 20 WSW 1020,4 46 0,0
28.10.2020 18:00:00 15,2 11,8 13,0 16 9 29 15 WSW 1020,0 49 0,0
28.10.2020 17:00:00 16,5 11,4 14,8 22 12 42 23 WSW 1019,5 31 0,0
28.10.2020 16:00:00 18,7 11,0 15,5 21 11 37 20 WSW 1019,2 32 0,0
28.10.2020 15:00:00 19,5 11,0 15,8 26 14 43 23 WSW 1019,2 18 0,0
28.10.2020 14:00:00 19,9 11,4 16,1 26 14 46 25 WSW 1019,1 30 0,0
28.10.2020 13:00:00 20,1 11,0 16,7 28 15 45 24 WSW 1019,0 37 0,0
28.10.2020 12:00:00 20,0 10,4 15,6 23 12 40 21 SW 1019,0 46 0,0
28.10.2020 11:00:00 19,6 9,2 15,4 22 12 35 19 WSW 1019,1 51 0,0
28.10.2020 10:00:00 17,9 10,5 13,2 8 5 16 9 S 1019,0 33 0,0
28.10.2020 09:00:00 13,6 9,2 7,5 3 2 6 4 SSE 1018,9 13 0,0
28.10.2020 08:00:00 8,0 7,6 3,6 6 3 9 5 E 1018,4 44 0,0
28.10.2020 07:00:00 3,8 3,2 3,2 6 4 10 5 NE 1017,8 38 0,0
28.10.2020 06:00:00 4,5 3,9 3,6 6 3 9 5 NE 1017,3 38 0,0
28.10.2020 05:00:00 4,9 4,2 4,0 7 4 9 5 NNE 1016,8 34 0,0
28.10.2020 04:00:00 6,0 5,1 4,6 4 2 12 6 NNW 1016,4 34 0,0
28.10.2020 03:00:00 5,9 4,7 5,8 5 3 10 6 NE 1016,7 36 0,0
28.10.2020 02:00:00 6,7 5,2 6,1 6 3 14 8 NNE 1016,7 38 0,0
28.10.2020 01:00:00 9,1 5,8 8,1 4 2 29 16 ENE 1016,3 41 0,0
28.10.2020 00:00:00 13,5 7,5 9,4 19 10 34 18 W 1016,1 40 0,0
27.10.2020 23:00:00 14,0 7,5 8,7 19 10 38 20 WNW 1015,7 36 0,0
27.10.2020 22:00:00 12,0 7,7 8,8 12 6 26 14 WSW 1015,8 36 0,0
27.10.2020 21:00:00 13,5 7,7 9,3 11 6 31 17 WNW 1015,2 38 0,0
27.10.2020 20:00:00 14,1 7,6 11,1 15 8 35 19 WNW 1014,5 37 0,0
27.10.2020 19:00:00 14,3 7,8 12,1 17 9 37 20 W 1014,1 37 0,0
27.10.2020 18:00:00 14,6 8,1 13,0 22 12 41 22 W 1013,6 35 0,0
27.10.2020 17:00:00 14,7 8,6 13,3 26 14 44 24 W 1013,1 27 0,0
27.10.2020 16:00:00 17,2 8,3 14,4 28 15 48 26 W 1012,5 29 0,0
27.10.2020 15:00:00 18,2 8,5 15,2 25 13 56 30 W 1012,4 20 0,0
27.10.2020 14:00:00 18,2 8,2 15,3 31 17 61 33 W 1011,8 34 0,0
27.10.2020 13:00:00 18,1 7,8 14,9 29 15 51 28 W 1012,1 31 0,0
27.10.2020 12:00:00 17,5 8,4 15,1 24 13 49 27 W 1012,6 39 0,0
27.10.2020 11:00:00 16,0 11,4 15,2 19 10 54 29 W 1012,8 19 0,4
27.10.2020 10:00:00 16,4 10,7 14,6 31 17 57 31 W 1012,3 17 0,0
27.10.2020 09:00:00 16,6 9,0 13,5 34 18 59 32 W 1011,5 30 0,0
27.10.2020 08:00:00 15,2 9,1 12,8 31 17 55 30 W 1011,2 20 0,0
27.10.2020 07:00:00 14,6 8,1 12,6 29 16 61 33 W 1010,5 32 0,0
27.10.2020 06:00:00 14,9 8,4 12,9 33 18 72 39 W 1009,7 29 0,0
27.10.2020 05:00:00 14,5 8,9 12,8 38 21 68 37 W 1009,0 17 0,0
27.10.2020 04:00:00 14,8 8,9 13,0 30 16 62 34 W 1009,4 18 0,0
27.10.2020 03:00:00 14,7 9,5 13,3 30 16 61 33 W 1009,9 28 0,0
27.10.2020 02:00:00 15,0 9,1 13,4 34 18 54 29 W 1009,6 30 0,0
27.10.2020 01:00:00 15,1 9,9 13,5 27 14 51 27 W 1010,0 20 0,0
27.10.2020 00:00:00 15,2 9,8 13,7 27 14 47 26 W 1009,3 32 0,0
26.10.2020 23:00:00 14,3 10,5 13,6 25 13 42 23 W 1009,6 35 0,0
26.10.2020 22:00:00 13,8 11,1 13,7 24 13 40 22 WSW 1009,7 35 0,0
26.10.2020 21:00:00 13,5 12,2 13,8 20 11 37 20 WSW 1008,8 35 0,4
26.10.2020 20:00:00 13,7 11,9 14,0 25 13 36 19 WSW 1008,8 41 0,2
26.10.2020 19:00:00 14,0 11,5 14,2 21 11 41 22 SW 1008,4 18 0,0
26.10.2020 18:00:00 15,7 9,8 14,4 21 11 55 30 WNW 1006,9 59 0,4
26.10.2020 17:00:00 15,0 12,1 14,8 29 16 55 30 NW 1006,1 4,3 1,0
26.10.2020 16:00:00 18,5 14,4 18,4 19 10 49 26 W 1005,9 14 0,0
26.10.2020 15:00:00 21,4 15,0 19,8 28 15 45 25 SW 1006,7 26 0,0
26.10.2020 14:00:00 22,2 15,8 19,3 23 12 39 21 SW 1007,5 19 0,0
26.10.2020 13:00:00 20,6 14,7 20,0 17 9 36 19 SW 1009,0 35 0,0
26.10.2020 12:00:00 21,8 14,7 19,6 21 11 34 18 SW 1010,0 31 0,0
26.10.2020 11:00:00 22,2 14,8 18,1 15 8 31 17 SW 1010,8 42 0,0
26.10.2020 10:00:00 20,1 14,5 17,5 16 9 26 14 SW 1011,3 30 0,0
26.10.2020 09:00:00 18,5 15,2 16,4 9 5 15 8 SW 1011,6 34 0,0
26.10.2020 08:00:00 16,9 15,4 15,3 6 3 11 6 WSW 1011,7 27 0,0
26.10.2020 07:00:00 16,1 15,3 13,9 6 4 11 6 W 1011,3 19 0,0
26.10.2020 06:00:00 15,0 14,2 13,9 5 3 9 5 WSW 1011,8 18 0,0
26.10.2020 05:00:00 16,2 14,7 14,9 6 3 14 8 SW 1012,4 20 0,0
26.10.2020 04:00:00 16,1 15,1 14,8 7 4 11 6 WSW 1012,9 18 0,0
26.10.2020 03:00:00 16,7 15,2 15,3 8 4 14 7 SW 1013,4 23 0,0
26.10.2020 02:00:00 17,1 15,1 15,9 10 6 18 10 W 1014,2 25 0,0
26.10.2020 01:00:00 17,6 14,9 16,3 16 9 23 12 SW 1014,6 30 0,0
26.10.2020 00:00:00 17,6 15,2 16,1 11 6 17 9 W 1015,1 33 0,0
25.10.2020 23:00:00 17,7 15,3 15,3 9 5 17 9 W 1015,4 35 0,0

tt = Température de l'air
td = dewpoint
tt 5cm = Température de l'air 5cm
ff = Vitesse du vent
fx = gusts
dd = Direction du vent
ppp = reduced air pressure
vv = visibility
rr = Quantités de précipitations

stations d'obs. à proximité